• In India
  • List of Countries
  • For 7 days
  • Water Temperature
  • Satellite Maps
  • Weather Map
  • Weather Widgets
  • user-avatar
    Login

    Hourly Weather Berat

    Today, 24 September, Monday

    Time Temperature Precipitation Wind Pressure Humidity
    00:00 +23°C° 0 mm 1 mps 746 mmHg 60%
    01:00 +23°C° 0 mm 1 mps 746 mmHg 63%
    02:00 +21°C° 0 mm 2 mps 746 mmHg 65%
    03:00 +21°C° 0 mm 2 mps 745 mmHg 67%
    04:00 +20°C° 0 mm 2 mps 745 mmHg 68%
    05:00 +21°C° 0 mm 2 mps 745 mmHg 65%
    06:00 +23°C° 0 mm 2 mps 745 mmHg 63%
    07:00 +25°C° 0 mm 2 mps 745 mmHg 60%
    08:00 +26°C° 0 mm 2 mps 744 mmHg 52%
    09:00 +28°C° 0 mm 3 mps 744 mmHg 45%
    10:00 +30°C° 0 mm 3 mps 744 mmHg 37%
    11:00 +30°C° 0 mm 3 mps 744 mmHg 36%
    12:00 +32°C° 0 mm 4 mps 744 mmHg 35%
    13:00 +33°C° 0 mm 4 mps 743 mmHg 34%
    14:00 +32°C° 0 mm 4 mps 743 mmHg 39%
    15:00 +30°C° 0 mm 4 mps 743 mmHg 43%
    16:00 +30°C° 0 mm 3 mps 743 mmHg 48%
    17:00 +28°C° 0.1 mm 3 mps 744 mmHg 58%
    18:00 +26°C° 0.1 mm 2 mps 744 mmHg 68%
    19:00 +24°C° 0.1 mm 1 mps 745 mmHg 78%
    20:00 +23°C° 0 mm 1 mps 745 mmHg 80%
    21:00 +23°C° 0 mm 2 mps 746 mmHg 81%
    22:00 +21°C° 0 mm 2 mps 746 mmHg 82%
    23:00 +20°C° 0.1 mm 2 mps 747 mmHg 80%

    Tomorrow, 25 September, Tuesday

    Time Temperature Precipitation Wind Pressure Humidity
    00:00 +20°C° 0.1 mm 3 mps 747 mmHg 77%
    01:00 +19°C° 0.1 mm 3 mps 747 mmHg 74%
    02:00 +18°C° 0 mm 3 mps 747 mmHg 71%
    03:00 +18°C° 0 mm 4 mps 748 mmHg 68%
    04:00 +17°C° 0 mm 4 mps 748 mmHg 65%
    05:00 +17°C° 0 mm 4 mps 748 mmHg 61%
    06:00 +17°C° 0 mm 4 mps 748 mmHg 57%
    07:00 +17°C° 0 mm 4 mps 749 mmHg 53%
    08:00 +19°C° 0 mm 4 mps 749 mmHg 47%
    09:00 +21°C° 0 mm 4 mps 749 mmHg 42%
    10:00 +23°C° 0 mm 4 mps 749 mmHg 36%
    11:00 +25°C° 0 mm 4 mps 749 mmHg 34%
    12:00 +26°C° 0 mm 5 mps 749 mmHg 32%
    13:00 +27°C° 0 mm 5 mps 749 mmHg 30%
    14:00 +26°C° 0 mm 5 mps 749 mmHg 29%
    15:00 +26°C° 0 mm 5 mps 749 mmHg 29%
    16:00 +25°C° 0 mm 5 mps 749 mmHg 29%
    17:00 +22°C° 0 mm 5 mps 749 mmHg 31%
    18:00 +20°C° 0 mm 5 mps 750 mmHg 33%
    19:00 +19°C° 0 mm 4 mps 750 mmHg 35%
    20:00 +18°C° 0 mm 4 mps 751 mmHg 36%
    21:00 +17°C° 0 mm 4 mps 751 mmHg 37%
    22:00 +15°C° 0 mm 4 mps 752 mmHg 38%
    23:00 +14°C° 0 mm 4 mps 752 mmHg 40%

    Day after tomorrow, 26 September, Wednesday

    Time Temperature Precipitation Wind Pressure Humidity
    00:00 +13°C° 0 mm 4 mps 752 mmHg 42%
    01:00 +12°C° 0 mm 4 mps 752 mmHg 43%
    02:00 +12°C° 0 mm 4 mps 752 mmHg 45%
    03:00 +11°C° 0 mm 4 mps 753 mmHg 47%
    04:00 +10°C° 0 mm 4 mps 753 mmHg 49%
    05:00 +11°C° 0 mm 4 mps 753 mmHg 47%
    06:00 +12°C° 0 mm 5 mps 753 mmHg 45%
    07:00 +12°C° 0 mm 5 mps 754 mmHg 43%
    08:00 +14°C° 0 mm 5 mps 754 mmHg 38%
    09:00 +16°C° 0 mm 6 mps 754 mmHg 32%
    10:00 +19°C° 0 mm 6 mps 754 mmHg 27%
    11:00 +20°C° 0 mm 6 mps 754 mmHg 25%
    12:00 +20°C° 0 mm 6 mps 754 mmHg 22%
    13:00 +21°C° 0 mm 5 mps 754 mmHg 20%
    14:00 +21°C° 0 mm 5 mps 753 mmHg 20%
    15:00 +20°C° 0 mm 5 mps 753 mmHg 21%
    16:00 +20°C° 0 mm 5 mps 753 mmHg 21%
    17:00 +17°C° 0 mm 5 mps 754 mmHg 24%
    18:00 +15°C° 0 mm 4 mps 754 mmHg 27%
    19:00 +13°C° 0 mm 4 mps 755 mmHg 30%
    20:00 +13°C° 0 mm 3 mps 755 mmHg 33%
    21:00 +12°C° 0 mm 3 mps 755 mmHg 35%
    22:00 +11°C° 0 mm 3 mps 755 mmHg 37%
    23:00 +11°C° 0 mm 3 mps 755 mmHg 40%

    27 September, Thursday

    Time Temperature Precipitation Wind Pressure Humidity
    00:00 +10°C° 0 mm 3 mps 755 mmHg 43%
    01:00 +10°C° 0 mm 3 mps 755 mmHg 46%
    02:00 +10°C° 0 mm 3 mps 755 mmHg 47%
    03:00 +9°C° 0 mm 3 mps 754 mmHg 48%
    04:00 +9°C° 0 mm 3 mps 754 mmHg 50%
    05:00 +10°C° 0 mm 3 mps 754 mmHg 47%
    06:00 +11°C° 0 mm 3 mps 754 mmHg 44%
    07:00 +12°C° 0 mm 3 mps 753 mmHg 41%
    08:00 +14°C° 0 mm 3 mps 753 mmHg 34%
    09:00 +18°C° 0 mm 3 mps 753 mmHg 28%
    10:00 +20°C° 0 mm 3 mps 752 mmHg 21%
    11:00 +21°C° 0 mm 4 mps 751 mmHg 19%
    12:00 +22°C° 0 mm 4 mps 751 mmHg 17%
    13:00 +23°C° 0 mm 5 mps 750 mmHg 16%
    14:00 +23°C° 0 mm 5 mps 749 mmHg 17%
    15:00 +23°C° 0 mm 5 mps 749 mmHg 17%
    16:00 +23°C° 0 mm 5 mps 749 mmHg 18%
    17:00 +20°C° 0 mm 5 mps 749 mmHg 21%
    18:00 +18°C° 0 mm 4 mps 749 mmHg 24%
    19:00 +15°C° 0 mm 4 mps 749 mmHg 28%
    20:00 +14°C° 0 mm 4 mps 749 mmHg 30%
    21:00 +14°C° 0 mm 4 mps 749 mmHg 33%
    22:00 +13°C° 0 mm 3 mps 748 mmHg 35%
    23:00 +13°C° 0 mm 3 mps 748 mmHg 38%

    28 September, Friday

    Time Temperature Precipitation Wind Pressure Humidity
    00:00 +12°C° 0 mm 3 mps 748 mmHg 40%
    01:00 +12°C° 0 mm 3 mps 747 mmHg 42%
    02:00 +12°C° 0 mm 3 mps 747 mmHg 42%
    03:00 +12°C° 0 mm 3 mps 747 mmHg 42%
    04:00 +12°C° 0 mm 3 mps 746 mmHg 42%
    05:00 +13°C° 0 mm 3 mps 746 mmHg 41%
    06:00 +14°C° 0 mm 3 mps 746 mmHg 39%
    07:00 +14°C° 0 mm 3 mps 746 mmHg 38%
    08:00 +18°C° 0 mm 3 mps 746 mmHg 33%
    09:00 +20°C° 0 mm 3 mps 746 mmHg 28%
    10:00 +22°C° 0 mm 4 mps 746 mmHg 23%
    11:00 +24°C° 0 mm 3 mps 746 mmHg 24%
    12:00 +25°C° 0 mm 3 mps 745 mmHg 25%
    13:00 +26°C° 0 mm 3 mps 745 mmHg 26%
    14:00 +26°C° 0 mm 3 mps 744 mmHg 27%
    15:00 +25°C° 0 mm 3 mps 744 mmHg 29%
    16:00 +25°C° 0 mm 3 mps 744 mmHg 30%
    17:00 +22°C° 0 mm 3 mps 744 mmHg 34%
    18:00 +21°C° 0 mm 3 mps 744 mmHg 37%
    19:00 +19°C° 0 mm 3 mps 745 mmHg 41%
    20:00 +18°C° 0 mm 3 mps 745 mmHg 45%
    21:00 +17°C° 0 mm 2 mps 745 mmHg 48%
    22:00 +16°C° 0 mm 2 mps 745 mmHg 51%
    23:00 +16°C° 0 mm 2 mps 745 mmHg 53%

    29 September, Saturday

    Time Temperature Precipitation Wind Pressure Humidity
    00:00 +16°C° 0 mm 2 mps 744 mmHg 55%
    01:00 +15°C° 0 mm 2 mps 744 mmHg 57%
    02:00 +15°C° 0 mm 2 mps 744 mmHg 56%
    03:00 +15°C° 0 mm 2 mps 744 mmHg 55%
    04:00 +15°C° 0 mm 2 mps 744 mmHg 55%
    05:00 +16°C° 0 mm 2 mps 744 mmHg 52%
    06:00 +16°C° 0 mm 2 mps 744 mmHg 49%
    07:00 +17°C° 0 mm 2 mps 744 mmHg 45%
    08:00 +21°C° 0 mm 1 mps 744 mmHg 39%
    09:00 +23°C° 0 mm 1 mps 744 mmHg 32%
    10:00 +25°C° 0 mm 1 mps 744 mmHg 26%
    11:00 +26°C° 0 mm 2 mps 744 mmHg 25%
    12:00 +27°C° 0 mm 2 mps 744 mmHg 25%
    13:00 +27°C° 0 mm 3 mps 744 mmHg 24%
    14:00 +27°C° 0 mm 3 mps 744 mmHg 26%
    15:00 +27°C° 0 mm 3 mps 743 mmHg 27%
    16:00 +26°C° 0 mm 4 mps 743 mmHg 29%
    17:00 +24°C° 0 mm 3 mps 744 mmHg 35%
    18:00 +21°C° 0 mm 2 mps 744 mmHg 41%
    19:00 +18°C° 0 mm 2 mps 745 mmHg 47%
    20:00 +18°C° 0 mm 2 mps 745 mmHg 46%
    21:00 +18°C° 0 mm 2 mps 745 mmHg 46%
    22:00 +18°C° 0 mm 2 mps 746 mmHg 46%
    23:00 +17°C° 0 mm 2 mps 746 mmHg 46%
    Show more